Total_Precipitation_Accumulation
0.12 0.32 0.49 0.41 0.33 0.28 0.23 0.19 0.15 0.10 0.10 0.08 0.08 0.08 0.08 0.08 0.09 0.07 0.05 0.04 0.03 0.01 0.00 0.00 0.00 0.01 0.05 0.15 0.24 0.39 0.69 1.04 1.14 0.95 0.78 0.70 0.64 0.52 0.39 0.33 0.38 0.46 0.43 0.35
0.07 0.17 0.18 0.14 0.16 0.19 0.22 0.24 0.21 0.15 0.11 0.08 0.06 0.04 0.04 0.05 0.07 0.07 0.06 0.05 0.04 0.02 0.01 0.00 0.00 0.02 0.07 0.20 0.35 0.48 0.69 1.02 1.09 1.01 0.92 0.85 0.80 0.67 0.55 0.51 0.50 0.54 0.50 0.52
0.04 0.05 0.05 0.09 0.16 0.23 0.27 0.28 0.25 0.19 0.11 0.08 0.05 0.03 0.02 0.03 0.03 0.04 0.04 0.05 0.04 0.02 0.01 0.01 0.01 0.02 0.05 0.13 0.25 0.39 0.50 0.66 0.76 0.79 0.80 0.86 0.86 0.83 0.82 0.76 0.69 0.64 0.61 0.67
0.02 0.02 0.04 0.07 0.09 0.14 0.20 0.15 0.11 0.09 0.09 0.08 0.06 0.06 0.01 0.01 0.01 0.02 0.03 0.03 0.04 0.03 0.02 0.01 0.01 0.01 0.02 0.06 0.12 0.21 0.30 0.39 0.43 0.45 0.55 0.73 0.85 0.87 0.84 0.78 0.73 0.74 0.77 0.81
0.00 0.01 0.02 0.04 0.06 0.09 0.10 0.06 0.06 0.06 0.07 0.07 0.06 0.06 0.02 0.01 0.01 0.02 0.02 0.03 0.03 0.03 0.02 0.02 0.02 0.01 0.02 0.03 0.04 0.07 0.11 0.14 0.18 0.21 0.29 0.44 0.51 0.61 0.73 0.66 0.64 0.76 0.81 0.85
0.00 0.00 0.00 0.01 0.02 0.04 0.05 0.05 0.05 0.05 0.05 0.05 0.04 0.05 0.02 0.01 0.02 0.01 0.01 0.02 0.02 0.02 0.03 0.02 0.01 0.02 0.03 0.03 0.03 0.03 0.04 0.05 0.05 0.07 0.11 0.16 0.25 0.41 0.72 0.79 0.78 0.91 0.96 0.86
0.00 0.00 0.00 0.00 0.01 0.02 0.03 0.07 0.10 0.09 0.09 0.06 0.03 0.04 0.03 0.03 0.02 0.02 0.02 0.01 0.02 0.03 0.04 0.04 0.02 0.02 0.02 0.02 0.02 0.02 0.03 0.04 0.04 0.05 0.06 0.09 0.16 0.23 0.53 0.79 0.77 0.75 0.84 0.85
0.00 0.00 0.00 0.00 0.01 0.03 0.03 0.07 0.12 0.13 0.11 0.08 0.04 0.04 0.04 0.03 0.03 0.03 0.03 0.04 0.04 0.05 0.06 0.07 0.06 0.05 0.04 0.04 0.03 0.03 0.03 0.06 0.07 0.04 0.03 0.06 0.11 0.13 0.21 0.38 0.48 0.52 0.55 0.65
0.01 0.01 0.00 0.00 0.01 0.02 0.05 0.07 0.08 0.11 0.08 0.06 0.04 0.05 0.05 0.04 0.05 0.06 0.06 0.08 0.10 0.12 0.15 0.15 0.14 0.11 0.10 0.08 0.05 0.04 0.06 0.13 0.15 0.13 0.11 0.09 0.10 0.16 0.23 0.25 0.32 0.49 0.51 0.51
0.04 0.02 0.01 0.01 0.01 0.02 0.04 0.06 0.09 0.15 0.18 0.14 0.10 0.13 0.15 0.11 0.11 0.11 0.12 0.15 0.21 0.25 0.26 0.26 0.24 0.22 0.17 0.11 0.07 0.05 0.05 0.11 0.23 0.34 0.31 0.25 0.23 0.29 0.52 0.57 0.38 0.38 0.47 0.47
0.17 0.12 0.04 0.03 0.05 0.08 0.11 0.16 0.18 0.22 0.22 0.26 0.29 0.31 0.26 0.23 0.22 0.23 0.25 0.26 0.32 0.37 0.38 0.38 0.36 0.31 0.26 0.17 0.08 0.05 0.04 0.10 0.16 0.18 0.20 0.22 0.30 0.40 0.61 0.81 0.71 0.49 0.40 0.39
0.22 0.28 0.15 0.08 0.12 0.14 0.18 0.28 0.41 0.55 0.50 0.44 0.48 0.42 0.28 0.23 0.25 0.25 0.25 0.23 0.24 0.28 0.31 0.35 0.36 0.29 0.23 0.17 0.10 0.06 0.05 0.09 0.15 0.15 0.12 0.14 0.22 0.33 0.38 0.42 0.46 0.37 0.24 0.19
0.33 0.46 0.37 0.25 0.30 0.30 0.35 0.38 0.44 0.55 0.59 0.55 0.54 0.44 0.27 0.19 0.16 0.16 0.15 0.17 0.16 0.15 0.16 0.17 0.18 0.18 0.15 0.13 0.12 0.10 0.10 0.11 0.13 0.15 0.16 0.14 0.13 0.15 0.15 0.12 0.11 0.12 0.12 0.10
0.33 0.42 0.46 0.43 0.47 0.51 0.50 0.42 0.37 0.49 0.62 0.53 0.45 0.37 0.28 0.22 0.15 0.11 0.11 0.12 0.12 0.11 0.10 0.10 0.11 0.12 0.14 0.13 0.12 0.11 0.11 0.16 0.21 0.30 0.31 0.25 0.20 0.15 0.12 0.09 0.07 0.07 0.07 0.07
0.22 0.25 0.25 0.23 0.22 0.31 0.35 0.30 0.29 0.35 0.37 0.43 0.37 0.31 0.21 0.16 0.13 0.13 0.13 0.12 0.11 0.10 0.09 0.08 0.09 0.10 0.12 0.13 0.13 0.13 0.14 0.21 0.26 0.35 0.41 0.36 0.33 0.28 0.23 0.16 0.11 0.10 0.10 0.09
0.15 0.18 0.17 0.15 0.15 0.22 0.28 0.27 0.27 0.27 0.29 0.34 0.35 0.28 0.13 0.09 0.09 0.10 0.12 0.13 0.14 0.13 0.10 0.10 0.11 0.11 0.11 0.13 0.14 0.15 0.20 0.29 0.34 0.36 0.44 0.55 0.53 0.41 0.31 0.23 0.18 0.17 0.17 0.16
0.13 0.22 0.29 0.24 0.20 0.22 0.45 0.46 0.44 0.44 0.36 0.31 0.22 0.12 0.06 0.07 0.08 0.09 0.12 0.15 0.16 0.14 0.12 0.12 0.12 0.13 0.14 0.16 0.19 0.21 0.26 0.35 0.35 0.37 0.45 0.61 0.58 0.43 0.37 0.36 0.32 0.28 0.29 0.29
0.10 0.22 0.32 0.26 0.29 0.56 0.80 0.59 0.55 0.48 0.26 0.12 0.05 0.04 0.05 0.09 0.09 0.08 0.09 0.12 0.15 0.14 0.12 0.11 0.10 0.11 0.12 0.15 0.18 0.21 0.25 0.28 0.30 0.33 0.38 0.49 0.48 0.44 0.45 0.44 0.39 0.33 0.31 0.31
0.12 0.23 0.33 0.29 0.33 0.59 0.64 0.41 0.33 0.31 0.18 0.04 0.04 0.05 0.07 0.09 0.06 0.03 0.05 0.07 0.09 0.08 0.06 0.05 0.05 0.05 0.05 0.05 0.06 0.09 0.12 0.15 0.19 0.24 0.30 0.37 0.39 0.41 0.42 0.41 0.42 0.39 0.35 0.34
0.25 0.30 0.43 0.44 0.54 0.57 0.31 0.16 0.15 0.21 0.24 0.05 0.02 0.02 0.03 0.04 0.04 0.02 0.02 0.04 0.04 0.03 0.02 0.01 0.01 0.01 0.00 0.00 0.01 0.03 0.05 0.08 0.12 0.17 0.23 0.29 0.31 0.35 0.38 0.42 0.44 0.43 0.40 0.36
0.22 0.30 0.38 0.46 0.65 0.54 0.21 0.11 0.11 0.20 0.25 0.08 0.02 0.01 0.01 0.02 0.02 0.01 0.02 0.03 0.02 0.01 0.01 0.00 0.00 0.00 0.00 0.00 0.00 0.02 0.05 0.07 0.07 0.09 0.14 0.20 0.27 0.35 0.43 0.48 0.48 0.49 0.46 0.40
0.24 0.26 0.28 0.38 0.54 0.49 0.20 0.15 0.18 0.17 0.08 0.03 0.02 0.01 0.00 0.01 0.00 0.00 0.01 0.01 0.01 0.01 0.00 0.00 0.00 0.00 0.00 0.00 0.00 0.00 0.02 0.03 0.03 0.05 0.10 0.16 0.25 0.32 0.40 0.48 0.50 0.49 0.49 0.48
0.27 0.30 0.32 0.43 0.57 0.38 0.23 0.20 0.19 0.12 0.06 0.02 0.01 0.00 0.00 0.00 0.00 0.00 0.00 0.01 0.01 0.01 0.00 0.00 0.00 0.00 0.00 0.00 0.00 0.00 0.00 0.00 0.00 0.02 0.05 0.10 0.14 0.19 0.23 0.29 0.37 0.44 0.48 0.48
0.15 0.17 0.23 0.32 0.32 0.20 0.18 0.16 0.12 0.07 0.04 0.02 0.01 0.00 0.00 0.00 0.00 0.00 0.00 0.01 0.01 0.01 0.00 0.00 0.00 0.00 0.00 0.00 0.00 0.00 0.00 0.00 0.00 0.01 0.02 0.04 0.05 0.06 0.09 0.18 0.26 0.33 0.40 0.44
0.10 0.13 0.18 0.25 0.25 0.15 0.10 0.10 0.07 0.04 0.02 0.01 0.01 0.00 0.00 0.00 0.00 0.00 0.00 0.00 0.00 0.01 0.00 0.00 0.00 0.00 0.00 0.00 0.00 0.00 0.00 0.00 0.01 0.01 0.01 0.02 0.03 0.04 0.07 0.13 0.22 0.26 0.34 0.35
0.07 0.11 0.17 0.24 0.23 0.17 0.08 0.07 0.05 0.03 0.02 0.01 0.01 0.00 0.00 0.00 0.00 0.00 0.00 0.00 0.00 0.01 0.01 0.01 0.00 0.01 0.00 0.00 0.00 0.01 0.03 0.01 0.04 0.06 0.03 0.02 0.02 0.05 0.07 0.09 0.11 0.12 0.15 0.15